Location: Unspecified
(42.7170°S, 0.0000°E)
Time: 10:42:09
(UTC+00:00)

N. Korean satellite - Pass Details

Date: 25 May 2019
Orbit: 455 x 510 km, 97.2° (Epoch: 18 June)

Event Time Altitude Azimuth Distance (km) Brightness Sun altitude
Exits shadow 17:55:32 - 161° (SSE) 1,823 9.1 -13.8°
Reaches altitude 10° 17:55:45 10° 161° (SSE) 1,733 9.0 -13.9°
Maximum altitude 17:59:27 59° 80° (E) 593 6.7 -14.5°
Drops below altitude 10° 18:03:09 10° 359° (N) 1,729 9.5 -15.2°
Sets 18:05:15 0° 355° (N) 2,610 10.5 -15.5°
